User: anonymous   Login
Location: Unspecified
(0.0000°N, 0.0000°E)
Time: 21:51:54
(UTC+00:00)
Language:

STARLINK-11647 [DTC] - Orbit

View from above orbital plane
View from above orbital plane
View from above satellite
View from above satellite

Ground track
Ground track

The orbit is defined by the following mean orbital elements,

1 63191U          26145.24994338 +.00000000 +00000-0 +15472-2 0 00004
2 63191  43.0031 218.2749 0005447 286.4105  73.6164 15.70989108    07
Epoch (UTC): 25 May 2026 05:59:55
Eccentricity: 0.0005447
inclination: 43.0031°
perigee height: 352 km
apogee height: 360 km
right ascension of ascending node: 218.2749°
argument of perigee: 286.4105°
revolutions per day: 15.70989108
mean anomaly at epoch: 73.6164°

The dashed part of the orbit path shows where the satellite is in the earth's shadow,  

DLR